Athol, MA

3:05 PM EST on February 19, 2017 (GMT -0500)
Orange Municipal

Weather History for KORE - May, 2014

Change the Weather History Date:

Tuesday, May 6, 2014

  Actual Average Record
Temperature  
Mean Temperature 48 °F -  
Max Temperature 62 °F 64 °F 80 °F (2000)
Min Temperature 36 °F 39 °F 30 °F (2001)
Degree Days  
Heating Degree Days 18    
Moisture  
Dew Point 31 °F    
Average Humidity 51    
Maximum Humidity 93    
Minimum Humidity 26    
Precipitation  
Precipitation 0.00 in - - ()
Sea Level Pressure  
Sea Level Pressure 29.93 in    
Wind  
Wind Speed 5 mph (NW)    
Max Wind Speed 18 mph    
Max Gust Speed 28 mph    
Visibility 10 miles    
Events Rain    
Averages and records for this station are not official NWS values.
T = Trace of Precipitation, MM = Missing Value Source: NWS Daily Summary

Daily Weather History Graph

Daily Weather History Graph

Search for Another Location

Airport or City:

Trip Planner

Search our weather history database for the weather conditions in past years. The results will help you decide how hot, cold, wet, or windy it might be!

Date:

Astronomy

May. 06, 2014 Rise Set
Actual Time 5:37 AM EDT 7:54 PM EDT
Civil Twilight 5:06 AM EDT 8:26 PM EDT
Nautical Twilight 4:27 AM EDT 9:05 PM EDT
Astronomical Twilight 3:44 AM EDT 9:48 PM EDT
Moon 11:52 AM EDT (5/6) 1:11 AM EDT (5/6)
Length of Visible Light 15h 20m
Length of Day
14h 17m
Waxing Crescent, 46% of the Moon is Illuminated
May 6
Waxing Crescent
May 6
First Quarter
May 14
Full
May 21
Last Quarter
May 28
New

Hourly Weather History & Observations

Time (EDT) Temp. Windchill Dew Point Humidity Pressure Visibility Wind Dir Wind Speed Gust Speed Precip Events Conditions
12:52 AM 41.0 °F - 37.9 °F 89% 29.89 in 10.0 mi Calm Calm - N/A   Clear
2:52 AM 37.0 °F - 35.1 °F 93% 29.88 in 10.0 mi Calm Calm - N/A   Clear
3:52 AM 36.0 °F - 34.0 °F 93% 29.88 in 10.0 mi Calm Calm - N/A   Clear
7:52 AM 44.1 °F 42.5 °F 37.9 °F 79% 29.91 in 10.0 mi ENE 3.5 mph - N/A   Clear
8:52 AM 51.1 °F - 37.0 °F 59% 29.90 in 10.0 mi Calm Calm - N/A   Clear
10:52 AM 55.9 °F - 33.1 °F 42% 29.90 in 10.0 mi WNW 11.5 mph - N/A   Mostly Cloudy
11:52 AM 57.0 °F - 30.9 °F 37% 29.88 in 10.0 mi West 8.1 mph - N/A   Mostly Cloudy
12:52 PM 57.9 °F - 30.0 °F 35% 29.87 in 10.0 mi NNW 13.8 mph 18.4 mph 0.00 in Rain Light Rain
1:52 PM 59.0 °F - 25.0 °F 27% 29.87 in 10.0 mi NW 16.1 mph - 0.00 in   Overcast
2:52 PM 57.9 °F - 28.0 °F 32% 29.88 in 10.0 mi NW 18.4 mph 24.2 mph 0.00 in Rain Light Rain
3:22 PM 55.9 °F - 30.0 °F 37% 29.88 in 10.0 mi WNW 10.4 mph 27.6 mph 0.00 in   Overcast
3:52 PM 59.0 °F - 30.9 °F 35% 29.89 in 10.0 mi North 13.8 mph 23.0 mph 0.00 in Rain Light Rain
4:52 PM 57.0 °F - 30.9 °F 37% 29.91 in 10.0 mi North 12.7 mph - 0.00 in   Mostly Cloudy
5:52 PM 57.9 °F - 27.0 °F 31% 29.91 in 10.0 mi North 10.4 mph - N/A   Overcast
6:52 PM 57.9 °F - 23.0 °F 26% 29.94 in 10.0 mi NNW 9.2 mph - N/A   Partly Cloudy
7:52 PM 53.1 °F - 24.1 °F 32% 29.98 in 10.0 mi NNW 8.1 mph - N/A   Clear
8:52 PM 50.0 °F - 27.0 °F 41% 30.01 in 10.0 mi NNW 5.8 mph - N/A   Clear
9:52 PM 44.1 °F - 28.0 °F 53% 30.03 in 10.0 mi Calm Calm - N/A   Clear
10:52 PM 39.9 °F 37.8 °F 30.0 °F 68% 30.05 in 10.0 mi SSW 3.5 mph - N/A   Clear
11:52 PM 37.0 °F - 30.9 °F 79% 30.07 in 10.0 mi Calm Calm - N/A   Clear